Other Surface Observations
Issued by NWS Jacksonville, FL

Current Version | Previous Version | Text Only | Print | Product List | Glossary On
Versions: 1 2 3 4 5 6 7 8 9 10 11 12 13 14 15 16 17 18 19 20 21 22 23 24 25 26 27 28 29 30 31 32 33 34 35 36 37 38 39 40 41 42 43 44 45 46 47 48 49 50
000
SXUS52 KJAX 272113
OSOJAX
OTHER SURFACE OBSERVATIONS
NATIONAL WEATHER SERVICE JACKSONVILLE FL
400 PM EST FRI FEB 27 2015

FLZ020>025-030>033-035>038-040-272200-
...FLORIDA...

CITY           SKY/WX    TMP DP  RH WIND       PRES   REMARKS
CECIL FIELD    SUNNY     54  39  58 NE15      30.29S
HERLONG FIELD  NOT AVBL
FERNANDINA BCH NOT AVBL
LAKE CITY      FAIR      52  36  54 N13       30.27F
JUNIPER SPGS   NOT AVBL
BUNNELL        NOT AVBL
KEYSTONE HGTS  FAIR      55  37  50 N10G17    30.26S
$$

GAZ132>136-149>154-162>166-272200-
...GEORGIA...

CITY           SKY/WX    TMP DP  RH WIND       PRES   REMARKS
JESUP          FAIR      55  37  50 E9        30.32F
HOMERVILLE     FAIR      54  41  62 N5        30.31S
SWAINSBORO     FAIR      57  27  30 E5        30.32S
CORDELE        NOT AVBL
EASTMAN        FAIR      58  38  48 NE5       30.33F
$$

PLEASE NOTE:  THESE OBSERVATIONS ARE NOT QUALITY CONTROLLED AND MAY
NOT BE AVAILABLE AT ALL TIMES.
$$


USA.gov is the U.S. government's official web portal to all federal, state and local government web resources and services.